User: anonymous   Login
Location: Borovka
(49.7741°N, 14.5280°E)
Time: 07:25:12
(UTC+00:00)
Language:

UKube-1 - Orbit

View from above orbital plane
View from above orbital plane
View from above satellite
View from above satellite

Ground track
Ground track

The orbit is defined by the following mean orbital elements,

1 40074U          26069.94109529 +.00000000 +00000-0 +70731-3 0 00001
2 40074  98.4235  63.0304 0003042 110.4993 249.6561 15.11824757    04
Epoch (UTC): 10 March 2026 22:35:10
Eccentricity: 0.0003042
inclination: 98.4235°
perigee height: 529 km
apogee height: 533 km
right ascension of ascending node: 63.0304°
argument of perigee: 110.4993°
revolutions per day: 15.11824757
mean anomaly at epoch: 249.6561°

The dashed part of the orbit path shows where the satellite is in the earth's shadow,  

DLR